Location: Star Hoppers Observatory
(42.7905°N, 83.6127°W)
Time: 11:05:35
(UTC-04:00)

Daily predictions for brighter satellites

Satellite Brightness Start Highest point End
(mag) Time Altitude Azimuth Time Altitude Azimuth Time Altitude Azimuth
CZ-2C R/B 0.4 21:34:34 10° S 21:36:50 85° WSW 21:39:07 10° NNW
SPOT 5 3.5 21:33:24 10° SE 21:37:17 33° ENE 21:41:11 10° N
Aureole 2 Rocket 4.1 21:34:17 10° SW 21:37:52 40° WNW 21:41:09 10° N
H-2A R/B 2.1 21:38:02 10° SSE 21:42:18 75° ENE 21:46:43 10° N
Lacrosse 4 Rocket 2.5 21:39:24 10° SSE 21:42:35 23° ESE 21:45:49 10° NE
Cosmos 1464 Rocket 4.4 21:36:36 10° NNW 21:42:42 68° W 21:48:49 10° S
USA 234 4.2 21:36:44 10° E 21:42:47 41° NNE 21:48:51 10° NW
deb Chang Zheng 4 3.6 21:39:27 10° NNE 21:43:51 69° ESE 21:48:10 10° S
CZ-4 SHROUD 4.2 21:41:12 10° SE 21:44:03 32° ENE 21:46:55 10° N
ERS-1 Rocket 3.1 21:39:39 10° SSE 21:44:40 87° WSW 21:49:44 10° NNW
Lacrosse 5 4.5 21:41:53 10° NW 21:45:13 17° N 21:48:32 10° NNE
Cosmos 2228 3.7 21:40:54 10° NNW 21:45:15 58° W 21:49:34 10° S
Cosmos 1515 4.3 21:45:03 10° SSE 21:48:39 38° E 21:52:14 10° NNE
GEOS 3 Rocket 3.8 21:43:33 10° SSE 21:48:48 73° SW 21:54:02 10° NW
Cosmos 1626 Rocket 3.6 21:45:21 10° S 21:49:47 86° WNW 21:54:12 10° N
PSLV R/B 4.0 21:47:47 10° SE 21:50:40 36° ENE 21:53:34 10° N
Cosmos 1603 4.0 21:47:02 10° SSW 21:52:39 76° WNW 21:58:17 10° NNE
Atlas Centaur 2 3.7 21:50:23 10° SW 21:56:27 32° S 22:03:24 10° ESE
Cosmos 1238 4.2 21:56:42 10° S 21:59:42 59° E 22:02:43 10° NNE
Envisat 3.0 21:54:58 10° SSE 21:59:59 71° ENE 22:05:04 10° N
Cosmos 1634 Rocket 4.3 21:55:28 10° N 22:01:27 49° ENE 22:07:18 11° SSE
Cosmos 407 Rocket 4.1 21:58:03 10° SSE 22:02:49 35° ESE 22:07:33 10° NE
Cosmos 1943 Rocket 3.4 21:59:36 10° N 22:04:21 28° NE 22:08:55 11° ESE
Nimbus 7 Rocket 4.4 21:59:48 10° NNE 22:05:47 76° ESE 22:11:40 10° S
Cosmos 1953 Rocket 4.2 22:06:21 10° SSE 22:10:21 37° E 22:14:28 10° NNE
SL-27 R/B 4.4 22:11:35 12° ESE 22:11:48 12° E 22:13:13 10° ENE
Cosmos 1943 3.2 22:07:20 10° SSW 22:12:57 68° ESE 22:18:37 10° NNE
Lacrosse 5 rocket 4.4 22:16:21 10° NW 22:18:22 13° NNW 22:20:27 10° NNE
Cosmos 1939 Rocket 3.5 22:14:30 10° S 22:18:36 57° W 22:22:41 10° NNW
Cosmos 1953 4.2 22:16:13 10° NNE 22:18:44 16° ENE 22:20:31 12° E
Cosmos 1346 Rocket 2.7 22:27:06 13° S 22:30:33 63° E 22:34:28 10° NNE
Cosmos 1992 Rocket 4.5 22:28:02 10° NNW 22:33:09 57° WSW 22:37:49 12° S
Cosmos 1842 4.2 22:35:17 23° SE 22:36:51 31° E 22:40:20 10° NNE
SeaSat 1 2.5 22:35:39 18° SSE 22:39:19 81° WSW 22:44:17 10° NNW
ARGOS 3.3 22:36:49 19° SSE 22:40:41 64° ENE 22:46:05 10° N
USA 81 4.2 22:37:28 10° N 22:42:46 76° W 22:47:28 13° S
SL-23 DEB 4.4 22:36:33 10° SW 22:43:07 58° SE 22:46:59 10° ENE
COSMOS 2455 4.0 22:37:43 10° SW 22:43:29 46° NW 22:49:17 10° NNE
Cosmos 1758 Rocket 3.5 22:40:29 16° S 22:43:56 70° E 22:48:16 10° NNE
Meteor 1-21 4.4 22:39:58 14° S 22:44:53 61° E 22:50:37 10° NNE
MetOp-B 4.5 22:45:19 14° S 22:49:52 63° WSW 22:55:13 10° NNW
ISS -1.1 22:47:39 10° W 22:50:33 28° NNW 22:53:27 10° NE
CZ-4B R/B 3.6 22:48:49 10° NNE 22:53:57 79° WNW 22:59:10 10° SSW
Cosmos 2369 Rocket 2.8 22:49:41 10° NW 22:55:08 50° WSW 22:59:14 17° S
Landsat 7 4.0 22:58:24 28° SE 23:00:47 60° ENE 23:05:29 10° N
Cosmos 1766 3.3 22:57:05 10° N 23:01:07 86° W 23:03:01 30° S
CZ-4 R/B 3.9 23:00:08 10° NNE 23:05:11 87° WNW 23:09:21 15° SSW
Cosmos 1570 Rocket 4.5 23:00:24 10° N 23:05:38 51° ENE 23:08:12 28° SE
Cosmos 1758 3.7 23:02:55 10° N 23:06:58 52° E 23:08:15 36° SE
H-2A R/B 2.3 23:04:51 29° SE 23:07:12 54° ENE 23:12:11 10° N
DELTA 2 DEB (DPAF) 4.1 23:05:25 31° SSE 23:07:35 84° ENE 23:12:06 10° NNW
PSLV R/B 3.4 23:04:11 10° W 23:07:40 57° S 23:08:17 48° SE
YAOGAN 6 3.7 23:06:29 20° SSW 23:08:38 40° W 23:12:12 10° NNW
NOAA 11 4.2 23:05:44 24° S 23:09:06 80° WSW 23:14:33 10° NNW
ATLAS 3B R/B 3.3 23:02:07 10° SW 23:09:47 69° NW 23:17:17 10° NNE
Cosmos 1140 Rocket 3.6 23:07:18 27° SSE 23:09:57 53° ESE 23:15:03 10° NNE
Spot 4 4.3 23:11:57 30° ESE 23:13:49 46° ENE 23:18:24 10° N
IGS 5A 3.9 23:12:41 35° ESE 23:13:58 48° ENE 23:17:58 10° N
Cosmos 1842 Rocket 4.2 23:09:58 10° N 23:14:08 41° ENE 23:15:21 33° ESE
SPOT 1/Viking Rocket 4.2 23:12:56 19° SSW 23:16:24 49° W 23:21:24 10° NNW
Terra 2.0 23:14:41 34° SE 23:16:36 61° ENE 23:21:18 10° N
Cosmos 676 Rocket 4.3 23:11:47 10° SSW 23:17:05 67° WNW 23:22:24 10° NNE
Cosmos 1340 4.3 23:17:42 20° E 23:17:42 20° E 23:20:11 10° NE
Lacrosse 4 Rocket 3.1 23:17:28 10° WSW 23:21:08 32° NW 23:24:52 10° NNE
NOSS 3-2 (A) 4.3 23:20:30 27° ESE 23:21:13 28° ESE 23:26:35 10° NE
Cosmos 2084 3.4 23:19:14 10° NW 23:23:23 79° SW 23:24:37 46° SSE
Cosmos 1544 4.0 23:20:06 10° N 23:23:34 34° ENE 23:23:55 34° E
SAR-Lupe-2 3.4 23:23:38 57° SSE 23:24:18 81° ENE 23:27:54 10° N
USA 234 3.2 23:21:50 29° SE 23:25:30 77° SW 23:32:06 10° NW
Cosmos 1470 3.8 23:24:07 10° NNE 23:27:35 30° ENE 23:27:56 30° E
Cosmos 1805 3.1 23:25:11 10° N 23:29:09 82° E 23:29:59 54° SSE
Cosmos 1092 Rocket 4.3 23:27:08 32° SSE 23:29:45 51° E 23:35:47 10° NNE
Lacrosse 5 4.3 23:26:18 10° NNW 23:29:54 19° NNE 23:33:29 10° ENE
BREEZE-M DEB (TANK) 4.0 23:28:00 10° W 23:30:06 25° NNW 23:31:56 10° NE
Cosmos 614 Rocket 4.1 23:30:46 39° SSE 23:32:15 53° ESE 23:37:20 10° NNE
COSMOS 2406 3.1 23:33:42 23° SSW 23:37:27 85° ESE 23:43:13 10° NNE
Nadezhda 4 Rocket 4.0 23:34:52 30° S 23:38:12 80° E 23:44:33 10° N
CZ-4C R/B 4.4 23:38:41 29° SW 23:40:09 40° W 23:43:57 10° NNW
DMSP B5D2-2 4.0 23:37:50 10° NNE 23:43:09 84° ESE 23:45:23 36° S
Atlas Centaur 2 3.8 23:38:58 10° WSW 23:45:19 28° SSW 23:46:02 28° S
SL-27 R/B 3.8 23:45:17 23° WSW 23:46:44 34° WNW 23:49:51 10° N
Cosmos 2221 3.6 23:43:25 10° NNE 23:47:15 30° ENE 23:47:39 30° E
SL-8 R/B 3.6 23:43:23 10° WNW 23:48:16 90° SSW 23:49:39 47° ESE
Cosmos 1943 Rocket 2.8 23:42:59 10° NW 23:48:17 46° WSW 23:50:26 31° SSW
Cosmos 2082 Rocket 4.3 23:49:20 11° E 23:49:20 11° E 23:50:27 10° ENE
Cosmos-2242 4.1 23:45:51 10° NNW 23:49:59 40° W 23:51:34 29° SW
COSMOS 2487 2.7 23:54:06 61° ENE 23:54:06 61° ENE 23:57:16 10° NNE
Cosmos 1953 3.3 23:51:39 10° NNW 23:55:21 38° W 23:56:18 32° SW
